Location: Narrabri
(30.3170°S, 149.7830°E)
Time: 04:56:27
(UTC+11:00)

Vanguard 3 - Visible Passes

Search period start: 21 October 2017 00:00
Search period end: 31 October 2017 00:00
Orbit: 510 x 3263 km, 33.3° (Epoch: 19 October)

Date Brightness Start Highest point End Pass type
(mag) Time Alt. Az. Time Alt. Az. Time Alt. Az.
21 Oct 10.5 00:17:33 10° WSW 00:27:30 38° WNW 00:27:30 38° WNW visible
21 Oct 9.5 20:48:48 10° WSW 21:01:00 87° SSE 21:12:53 29° ENE visible
21 Oct 9.8 23:02:04 10° WSW 23:17:25 62° NNW 23:17:25 62° NNW visible
22 Oct 11.1 01:18:52 10° W 01:21:58 16° W 01:21:58 16° W visible
22 Oct 9.3 19:35:03 10° W 19:45:01 79° S 20:02:30 10° E visible
22 Oct 9.6 21:47:28 10° WSW 22:01:03 77° NNW 22:07:23 51° NE visible
23 Oct 10.5 00:01:54 10° W 00:11:56 36° WNW 00:11:56 36° WNW visible
23 Oct 9.4 20:33:29 10° WSW 20:44:51 90° NNE 20:57:23 26° ENE visible
23 Oct 9.9 22:46:29 10° WSW 23:00:57 56° NNW 23:01:56 56° NNW visible
24 Oct 11.1 01:03:38 10° W 01:06:29 15° W 01:06:29 15° W visible
24 Oct 9.2 19:19:55 10° WSW 19:29:09 80° S 19:45:45 10° E visible
24 Oct 9.6 21:32:03 10° WSW 21:44:40 71° NNW 21:51:58 44° NE visible
24 Oct 10.5 23:46:26 10° W 23:56:31 34° WNW 23:56:31 34° WNW visible
25 Oct 9.3 20:18:13 10° WSW 20:28:45 85° NNW 20:42:03 21° ENE visible
25 Oct 10.0 22:31:03 10° W 22:44:25 50° NNW 22:46:37 48° NNW visible
26 Oct 11.2 00:48:48 10° W 00:51:10 14° WNW 00:51:10 14° WNW visible
26 Oct 9.6 21:16:42 10° WSW 21:28:22 65° NNW 21:36:44 37° NE visible
26 Oct 10.5 23:31:13 10° W 23:41:18 30° NW 23:41:18 30° NW visible
27 Oct 9.2 20:03:01 10° WSW 20:12:45 80° NNW 20:26:55 17° ENE visible
27 Oct 10.0 22:15:46 10° W 22:28:02 44° NNW 22:31:28 40° N visible
28 Oct 11.2 00:34:38 10° WNW 00:36:02 12° WNW 00:36:02 12° WNW visible
28 Oct 9.6 21:01:27 10° WSW 21:12:12 57° NNW 21:21:41 30° NE visible
28 Oct 10.6 23:16:17 10° W 23:26:16 26° NW 23:26:16 26° NW visible
29 Oct 9.1 19:47:52 10° WSW 19:56:49 73° NNW 20:11:58 12° ENE visible
29 Oct 10.1 22:00:39 10° W 22:11:47 37° NNW 22:16:32 32° N visible
30 Oct 9.6 20:46:20 10° W 20:56:09 50° NNW 21:06:51 22° NE visible
30 Oct 10.7 23:01:45 10° WNW 23:11:26 21° NW 23:11:26 21° NW visible
